COSMOS 1275 DEB, 42122

Orbit data source: Space-Track

COSMOS 1275 DEB, 42122 is space debris in LEO originally from a launch on Thu, 04 Jun 1981 UTC launched from the Plesetsk Missile And Space Complex (PKMTR). Debris objects in space refer to the collection of defunct objects orbiting the Earth. Examples of debris include non-operational satellites, rocket bodies, and fragments generated from explosions, collisions, or faulty payload assembly.

Loading next visibility...
Identifier
42122, 1981-053QJ
Orbit
LEO
Country
Flag of CISCIS
Related business
Manufacturer
Unknown
Mission
Spacecraft
Bus & Motor
Unknown
Mass
Unknown
Launch date (UTC)
1981-06-04 (45 years ago)
Launch vehicle
Unknown
Launch site
Plesetsk Missile And Space Complex (PKMTR)
Object type
Payload
Rocket body
Debris
Shape & HBR
Unknown shape, 0.1 m
Radar Cross Section
Small (<0.1 m²)

Expand to show TLE details & history
Last TLE update: 1 week ago

TLE from 1 week ago
0 COSMOS 1275 DEB
1 42122U 81053QJ  26152.90303094  .00001545  00000-0  12641-2 0  9993
2 42122  82.9323  14.6896 0087208 214.5378 145.0102 13.87223854631139
Epoch: 2026-06-01T21:40Z
TLE epoch observation values (Epoch: 2026-06-01T21:40:21.873Z)
Latitude
0.00003°
Longitude
159.21478°
Altitude
993.757 km
Speed
7.328 km/s
True Right ascension
00h 58m 45s
True Declination
0° 00' 00"
Sunlit
Object was in daylight at epoch
Visualization orbit readout
Latitude
Unknown
Longitude
Unknown
Altitude
Unknown
Speed
Unknown
Apparent Right ascension
Unknown
Apparent Declination
Unknown
Sunlit
N/A
Visualization observer readout
Local Sidereal Time
18:10:22
Azimuth
Unknown
Elevation
Unknown
Doppler factor
Unknown
Orbital elements
Apogee altitude
999.289 km
Perigee altitude
871.727 km
Semi-major axis
7,313.645 km
Eccentricity
0.00872
Inclination
82.9323°
RAAN
14.6896°
Arg. of periapsis
214.5378°
True anomaly
145.57816°
Mean anomaly
145.0102°
Eccentric anomaly
145.29469°
Mean motion
3.4701 °/min
Orbital period
103.74 mins
BSTAR
0.0012641
Loading maneuver chart data...
Computing Atmospheric mass density...

Documentation

Showing up to 5 results
|